Regional Weather Roundup
Issued by NWS

Home | Current Version | Previous Version | Graphics & Text | Print | Product List | Glossary On
Versions: 1 2 3 4 5 6 7 8 9 10 11 12 13 14 15 16 17 18 19 20 21 22 23 24 25 26 27 28 29 30 31 32 33 34 35 36 37 38 39 40 41 42 43 44 45 46 47 48 49 50
000
ASUS43 KIND 301759
RWRIN

WEATHER ROUNDUP FOR INDIANA
NATIONAL WEATHER SERVICE INDIANAPOLIS IN
200 PM EDT THU OCT 30 2014

NOTE: "FAIR" INDICATES FEW OR NO CLOUDS BELOW 12,000 FEET WITH NO
SIGNIFICANT WEATHER AND/OR OBSTRUCTIONS TO VISIBILITY.

* - STATION DOES NOT REPORT WEATHER SUCH AS PRECIPITATION OR FOG.

+ - STATION NOT QUALITY CONTROLLED BY THE NATIONAL WEATHER SERVICE.
    USE DATA WITH CAUTION...ESPECIALLY DEWPOINT AND RELATIVE
    HUMIDITY OBSERVATIONS.

INZ001>003-010>013-019-020-301900-
NORTHWEST INDIANA

CITY           SKY/WX    TMP DP  RH WIND       PRES   REMARKS
GARY /AIRPORT/ PTSUNNY   52  34  50 SW12      30.11F
VALPARAISO     NOT AVBL

$$

LMZ046-743>745-301900-
SOUTHERN LAKE MICHIGAN

STATION/POSITION TIME  TEMP WIND        PRES
                       AIR  DIR/SP/G
                 (UTC) (F)  (DEG/KT/KT) (MB)
MICHIGAN CITY    1700   47  200/  8/ 11   N/A

$$

INZ004-005-014>016-021>024-301900-
NORTH CENTRAL INDIANA

CITY           SKY/WX    TMP DP  RH WIND       PRES   REMARKS
ELKHART        CLOUDY    50  32  50 SW8       30.11F
GOSHEN         CLOUDY    49  34  56 SW8       30.11F
6HR MIN TEMP:  43; 6HR MAX TEMP:  50;

SOUTH BEND     PTSUNNY   51  32  48 SW10      30.12F
6HR MIN TEMP:  44; 6HR MAX TEMP:  51;


$$

INZ006>009-017-018-025>027-301900-
NORTHEAST INDIANA

CITY           SKY/WX    TMP DP  RH WIND       PRES   REMARKS
ANGOLA *+      CLOUDY    48  36  61 SW6       30.10F
FORT WAYNE     CLOUDY    48  36  63 S7        30.13F
6HR MIN TEMP:  43; 6HR MAX TEMP:  48;


$$

INZ028-029-035-036-043>045-051>053-301900-
WEST CENTRAL INDIANA

CITY           SKY/WX    TMP DP  RH WIND       PRES   REMARKS
GREENCASTLE +  MOSUNNY   50  34  53 SE5       30.13F
LAFAYETTE      MOSUNNY   50  33  52 VRB3      30.12F
6HR MIN TEMP:  30; 6HR MAX TEMP:  51;

TERRE HAUTE    MOSUNNY   52  35  52 S7        30.12F
6HR MIN TEMP:  31; 6HR MAX TEMP:  52;


$$

INZ030>032-037>040-046>048-054>057-064-065-301900-
CENTRAL INDIANA

CITY           SKY/WX    TMP DP  RH WIND       PRES   REMARKS
ANDERSON       MOSUNNY   50  32  50 CALM      30.13F
COLUMBUS       SUNNY     50  36  57 CALM      30.13F
INDIANAPOLIS   PTSUNNY   50  34  54 VRB5      30.12F
6HR MIN TEMP:  34; 6HR MAX TEMP:  51;

-EAGLE CREEK   MOSUNNY   50  32  50 S7        30.11F
6HR MIN TEMP:  36; 6HR MAX TEMP:  52;

KOKOMO *+      MOSUNNY   52  34  50 CALM      30.12F
MT COMFORT *+  SUNNY     54  21  28 CALM      30.12F
SHELBYVILLE    SUNNY     53  34  48 W6        30.11F
6HR MIN TEMP:  33; 6HR MAX TEMP:  53;


$$

INZ033-034-041-042-049-050-058-059-301900-
EAST CENTRAL INDIANA

CITY           SKY/WX    TMP DP  RH WIND       PRES   REMARKS
MUNCIE         PTSUNNY   49  33  54 W5        30.12F
6HR MIN TEMP:  43; 6HR MAX TEMP:  49;


$$

INZ060-061-067>069-081>083-085>088-301900-
SOUTHWEST INDIANA

CITY           SKY/WX    TMP DP  RH WIND       PRES   REMARKS
EVANSVILLE     SUNNY     55  36  48 CALM      30.13F
6HR MIN TEMP:  36; 6HR MAX TEMP:  55;

HUNTINGBURG *+ SUNNY     54  37  54 CALM      30.14F
6HR MIN TEMP:  34; 6HR MAX TEMP:  54;


$$

INZ062-063-066-070>080-084-089>092-301900-
SOUTH CENTRAL AND SOUTHEAST INDIANA

CITY           SKY/WX    TMP DP  RH WIND       PRES   REMARKS
BLOOMINGTON    MOSUNNY   51  34  52 S3        30.12F
6HR MIN TEMP:  31; 6HR MAX TEMP:  52;


$$




USA.gov is the U.S. government's official web portal to all federal, state and local government web resources and services.